ESPAEFOU

Guest
Details From ESPA - Lulea Kallax
To EFOU - Oulu
Flight Number -
Tags generated
Created
Modified
Stats Distance 89 nm / 166 km
Max Altitude 0 ft / 0 m
Waypoints 3
Social Downloads 0
Likes 0
Share VATSIM

Download

Looking for another format? Having issues loading an existing format? Contact us
Advertisement - Login to hide

Notes

Basic altitude profile: - Ascent Rate: 2500ft/min - Ascent Speed: 250kts - Cruise Altitude: 35000ft - Cruise Speed: 420kts - Descent Rate: 1500ft/min - Descent Speed: 250kts Options: - Use NATs: yes - Use PACOTS: yes - Use low airways: yes - Use high airways: yes

Route

ESPA OUK EFOU

ID Type Via Altitude Latitude Longitude Leg Dist Tot Dist Heading (true) Name
O ESPA APT - 0 ft / 0 m 65.54376˚ 22.12198˚ - 0 nm - Lulea Kallax
OUK VOR - 0 ft / 0 m 64.93155˚ 25.35928˚ 89 nm 89 nm 113° / 116° OULU VOR-DME
O EFOU APT - 0 ft / 0 m 64.93006˚ 25.35456˚ 0 nm 89 nm 233° / 233° Oulu

Altitude Profile

Advertisement - Login to hide

ESPA

Details ICAO ESPA (LLA)
Name Lulea Kallax
Region Sweden
Timezone Europe/Stockholm (UTC+2.0)
Stats Elevation 65 ft / 20 m (AMSL)
Location 65.543757° 22.121979°
Runways 1
Magnetic Variation 9.410° E

METAR

ESPA 261420Z 30015KT CAVOK 17/M02 Q1027

Decode

TAF

Not found

Departure Runways

ID Width Length Bearing (true) Bearing (mag) Surface Threshold Offset Overrun Length
14 148 ft / 45 m 10,957 ft / 3,340 m 137.32° 127.91° Asphalt 0 ft / 0 m 0 ft / 0 m
32 148 ft / 45 m 10,957 ft / 3,340 m 317.36° 307.95° Asphalt 0 ft / 0 m 0 ft / 0 m

EFOU

Details ICAO EFOU (OUL)
Name Oulu
Region Finland
Timezone Europe/Helsinki (UTC+3.0)
Stats Elevation 47 ft / 14 m (AMSL)
Location 64.930059° 25.354560°
Runways 1
Magnetic Variation 10.743° E

METAR

EFOU 261420Z AUTO 29014KT CAVOK 16/00 Q1027

Decode

TAF

TAF EFOU 261126Z 2612/2712 30015KT CAVOK TEMPO 2612/2617 30015G25KT

Decode

Destination Runways

ID Width Length Bearing (true) Bearing (mag) Surface Threshold Offset Overrun Length
12 197 ft / 60 m 8,180 ft / 2,493 m 121.01° 110.27° Asphalt 0 ft / 0 m 200 ft / 61 m
30 197 ft / 60 m 8,180 ft / 2,493 m 301.05° 290.31° Asphalt 0 ft / 0 m 200 ft / 61 m

Approach Navaids

Runway Type Ident Frequency Range Bearing (true) Bearing (mag) Slope Elevation
12 Localiser OU 109.50 MHz 18 nm / 33 km 121.06° 110.31° - 47 ft / 14 m (AMSL)
12 Glidescope OU 109.50 MHz 10 nm / 19 km 121.03° 110.29° 3.00° 47 ft / 14 m (AMSL)
12 DME OU 109.50 MHz 18 nm / 33 km - - - 100 ft / 30 m (AMSL)